Location: Chmeln�
(49.6483°N, 14.9871°E)
Time: 06:30:39
(UTC+00:00)

Cosmos 2369 Rocket - Pass Details

Date: 18 September 2020
Orbit: 827 x 854 km, 71.0° (Epoch: 27 October)

Event Time Altitude Azimuth Distance (km) Brightness Sun altitude
Exits shadow 22:59:39 22° 34° (NE) 1,755 4.2 -38.9°
Drops below altitude 10° 23:01:35 10° 32° (NNE) 2,469 5.2 -38.9°
Sets 23:04:03 0° 30° (NNE) 3,412 6.1 -38.9°
